Regional Weather Roundup
Issued by NWS

Home | Current Version | Previous Version | Graphics & Text | Print | Product List | Glossary On
Versions: 1 2 3 4 5 6 7 8 9 10 11 12 13 14 15 16 17 18 19 20 21 22 23 24 25 26 27 28 29 30 31 32 33 34 35 36 37 38 39 40 41 42 43 44 45 46 47 48 49 50
000
ASUS43 KLSX 241610
RWRMO

WEATHER SUMMARY FOR MISSOURI
NATIONAL WEATHER SERVICE SPRINGFIELD MO
1000 AM CST TUE JAN 24 2017

NOTE: "FAIR" INDICATES FEW OR NO CLOUDS BELOW 12,000 FEET WITH NO
       SIGNIFICANT WEATHER AND/OR OBSTRUCTIONS TO VISIBILITY.
       CURRENT SKY AND/OR WEATHER CONDITIONS ARE NOT AVAILABLE FOR
       CHILLICOTHE AND FARMINGTON.

MOZ001>031-035>038-043-044-053-054-241700-
...NORTHERN AND WESTERN MISSOURI...

CITY           SKY/WX    TMP DP  RH WIND       PRES   REMARKS
KANSAS CTY INT CLOUDY    33  30  88 E21G26    29.69F FOG     WCI  21
KANSAS C DTWN  CLOUDY    36  33  89 E15       29.70F WCI  27
LEE`S SUMMIT   CLOUDY    35  32  88 E15       29.70F WCI  25
ST JOSEPH      CLOUDY    33  32  96 E17G23    29.71F FOG     WCI  22
CHILLICOTHE      N/A     33  30  88 E8        29.82R WCI  26
KIRKSVILLE     CLOUDY    32  30  92 E13       29.83F WCI  22

$$
MOZ066>068-077>081-088>096-101>105-241700-
...SOUTHWEST MISSOURI...

CITY           SKY/WX    TMP DP  RH WIND       PRES   REMARKS
SPRINGFIELD    PTSUNNY   44  35  70 SE25G33   29.69F
JOPLIN         SUNNY     52  37  56 S17       29.64F
BRANSON        PTSUNNY   41  36  81 SE15      29.77S

$$
MOZ032>034-039>042-045>050-055>058-069>072-241700-
...CENTRAL MISSOURI...

CITY           SKY/WX    TMP DP  RH WIND       PRES   REMARKS
COLUMBIA       SUNNY     40  34  79 SE12      29.82S
JEFFERSON CITY SUNNY     37  33  85 SE13      29.84S WCI  29
ROLLA          SUNNY     39  35  86 S13       29.83R
SEDALIA        SUNNY     39  36  89 SE15      29.76F
WARRENSBURG    SUNNY     37  34  87 E13G18    29.73F WCI  29
OSAGE BEACH    SUNNY     41  35  79 SE10      29.78F

$$
MOZ051-052-059>065-241700-
...EAST CENTRAL MISSOURI...

CITY           SKY/WX    TMP DP  RH WIND       PRES   REMARKS
ST LOUIS INTL  PTSUNNY   42  32  67 E8        29.90R
SPIRIT OF STL  PTSUNNY   43  34  70 E7        29.88S
ST CHARLES     CLOUDY    41  33  73 SE10      29.90R

$$
MOZ072>076-082>087-097>100-106>115-241700-
...SOUTH CENTRAL AND SOUTHEAST MISSOURI...

CITY           SKY/WX    TMP DP  RH WIND       PRES   REMARKS
CAPE GIRARDEAU NOT AVBL
FARMINGTON     SUNNY     39  36  89 SE8       29.88F
POPLAR BLUFF   SUNNY     42  37  82 SE9       29.94R
WEST PLAINS    SUNNY     41  36  82 SE12G22   29.86S

$$



USA.gov is the U.S. government's official web portal to all federal, state and local government web resources and services.